Regional Weather Roundup
Issued by NWS

Home | Current Version | Previous Version | Graphics & Text | Print | Product List | Glossary On
Versions: 1 2 3 4 5 6 7 8 9 10 11 12 13 14 15 16 17 18 19 20 21 22 23 24 25 26 27 28 29 30 31 32 33 34 35 36 37 38 39 40 41 42 43 44 45 46 47 48 49 50
000
ASUS43 KMKX 212120
RWRWI

WISCONSIN REGIONAL WEATHER ROUNDUP
NATIONAL WEATHER SERVICE MILWAUKEE/SULLIVAN WI
300 PM CST SAT JAN 21 2017

NOTE: "FAIR" INDICATES FEW OR NO CLOUDS BELOW 12,000 FEET WITH NO
SIGNIFICANT WEATHER AND/OR OBSTRUCTIONS TO VISIBILITY.

WIZ001-002-006>008-014>016-023>028-212200-
NORTHWEST WISCONSIN

CITY           SKY/WX    TMP DP  RH WIND       PRES   REMARKS
SUPERIOR ARPT  CLOUDY    35  35 100 NE7       29.46R FOG     WCI  29
ASHLAND        FOG       34  33  96 N6        29.46R VSB 1/4 WCI  29
HAYWARD        CLOUDY    37  35  92 NE3       29.42R FOG
SIREN          CLOUDY    37  36  99 NE3       29.42R FOG
CUMBERLAND     FOG       36  34  93 CALM      29.41R VSB 3/4
RICE LAKE      FOG       37  36  99 CALM      29.42R VSB 1
CHETEK         CLOUDY    36  36 100 CALM      29.41R FOG
LADYSMITH      FOG       38  37  97 E3        29.42R VSB 1
EAU CLAIRE     FOG       36  36 100 CALM      29.40R VSB 1/4
MENOMONIE        N/A    N/A N/A N/A MISG        N/A
NEW RICHMOND   FOG       36  36 100 E3        29.41R VSB 1/4
OSCEOLA        LGT RAIN  37  37 100 CALM      29.44R VSB 1
$$

WIZ003>005-009-010-017-018-212200-
NORTH CENTRAL WISCONSIN

CITY           SKY/WX    TMP DP  RH WIND       PRES   REMARKS
MANITOWISH WTR CLOUDY    36  36 100 E5        29.41S FOG     WCI  32
ARBOR VITAE    CLOUDY    38  37  97 E3        29.41S FOG
WOODRUFF       CLOUDY    38  37  97 E3        29.41S FOG
RHINELANDER    CLOUDY    37  37 100 SE6       29.42S WCI  32
EAGLE RIVER    CLOUDY    37  37 100 E6        29.42R WCI  32
LAND O LAKES   CLOUDY    37  37 100 E6        29.44R WCI  32
PHILLIPS       RAIN      36  36 100 CALM      29.40S
TOMAHAWK       FOG       37  36  96 CALM      29.42R VSB 3/4
MEDFORD        FOG       35  35  99 SE5       29.40R VSB 1/2 WCI  31
MERRILL        DRZL/FOG  37  37 100 SE3         N/A  VSB 3/4
$$

WIZ029-030-035-036-043>047-212200-
CENTRAL WISCONSIN

CITY           SKY/WX    TMP DP  RH WIND       PRES   REMARKS
WAUSAU         FOG       35  35 100 SE8       29.41R VSB 1/4 WCI  29
MOSINEE        FOG       36  36 100 E7        29.43R VSB 1/8 WCI  30
MARSHFIELD     FOG       36  35  96 E5        29.40R VSB 1/4 WCI  32
STEVENS POINT  FOG       34  34 100 E5        29.43R VSB 1/4 WCI  30
WAUPACA        FOG       39  38  97 CALM      29.44S VSB 1
WAUTOMA        FOG       38  38 100 CALM      29.44R VSB 1/4
WISC RAPIDS    FOG       37  37 100 SE7       29.43R VSB 1/2 WCI  32
CAMP DOUGLAS   CLOUDY    39  39 100 CALM      29.43R FOG
$$

WIZ011>013-019>022-031-037>040-048>050-212200-
NORTHEAST WISCONSIN

CITY           SKY/WX    TMP DP  RH WIND       PRES   REMARKS
ANTIGO         FOG       34  34 100 CALM      29.44R VSB 1/4
SHAWANO        FOG       36  35  96 N6        29.46R VSB 1/4 WCI  31
OCONTO         CLOUDY    36  36  99 E8        29.45S VSB 1/4 WCI  30
STURGEON BAY   LGT RAIN  39  39 100 E8        29.47S VSB 1/4 WCI  33
GREEN BAY      FOG       38  37  97 NE3       29.45R VSB 1/4
MANITOWOC      FOG       39  39 100 MISG      29.44F VSB<1/4
APPLETON       FOG       37  37 100 CALM      29.42R VSB 1/8
CLINTONVILLE   FOG       36  36 100 NE5       29.45R VSB 1/4 WCI  32
OSHKOSH        FOG       38  37  97 S3        29.44R VSB 1/2
$$

WIZ032>034-041-042-053>061-212200-
SOUTHWEST WISCONSIN

CITY           SKY/WX    TMP DP  RH WIND       PRES   REMARKS
LA CROSSE      CLOUDY    42  38  85 S8        29.43R FOG
SPARTA         CLOUDY    41  40  96 S3        29.43R
VIROQUA        CLOUDY    39  39 100 SW5       29.42R VSB 1/4
BOSCOBEL       CLOUDY    44  42  93 CALM      29.45R FOG
PRAIRIE DU CHI CLOUDY    43  42  97 CALM      29.44R FOG
PLATTEVILLE    CLOUDY    43  43 100 SW8       29.45R
$$

WIZ056-057-062-063-064-067-068-212200-
SOUTH CENTRAL WISCONSIN

CITY           SKY/WX    TMP DP  RH WIND       PRES   REMARKS
REEDSBURG      FOG       41  41 100 S3        29.43R VSB 3/4
BARABOO/DELLS  FOG       41  41  99 SW5       29.43R VSB<1/4
LONE ROCK      FOG       43  41  93 CALM      29.45R VSB 1
MINERAL POINT  CLOUDY    45  45 100 SW5       29.44R FOG
MADISON        CLOUDY    45  43  93 S5        29.45R FOG
MIDDLETON      CLOUDY    45  45 100 SW5       29.45R
WATERTOWN      PTSUNNY   49  47  96 CALM      29.44R
MONROE         CLOUDY    43  43 100 SW7       29.45R FOG
JANESVILLE     PTSUNNY   54  45  71 W7        29.44R
$$

WIZ051-052-058>065-066-070>072-212200-
SOUTHEAST WISCONSIN

CITY           SKY/WX    TMP DP  RH WIND       PRES   REMARKS
MILWAUKEE      MOSUNNY   51  45  79 SE7       29.44R
WAUKESHA       PTSUNNY   52  45  76 SW12      29.44R
MILWAUKEE/TIMM CLOUDY    54  43  66 SW10      29.44R
RACINE         MOSUNNY   50  42  74 S5        29.46R
KENOSHA        MOSUNNY   56  44  64 SW12      29.45R
FOND DU LAC    CLOUDY    44  41  89 S5        29.45R FOG
SHEBOYGAN      FOG       41  40  96 S10       29.45R VSB 1/4
WEST BEND      CLOUDY    45  45 100 W6        29.45R FOG
JUNEAU         CLOUDY    44  44  99 SW3       29.45S FOG
$$

LSZ147-162-212200-
LAKE SUPERIOR

STATION/POSITION TIME  TEMP    WIND        PRES    WAVE
                       AIR SEA DIR/SP/G            HT/PER
                 (UTC) (F)     (DEG/KT/KT) (MB)    (FT/S)
DEVILS ISLAND    2100   35      60/ 14/ 15  998.5F
PORT WING        2030   33      30/ 10/ 11  998.0S
SAXON HARBOR     2040   34      40/  5/  7  997.3S
$$

LMZ867-665-643>646-212200-
LAKE MICHIGAN

STATION/POSITION TIME  TEMP    WIND        PRES    WAVE
                       AIR SEA DIR/SP/G            HT/PER
                 (UTC) (F)     (DEG/KT/KT) (MB)    (FT/S)
NORTHPORT PIER   2040   35      80/  5/  8  999.0F
SISTER BAY       2035   38      90/  8/ 10   N/A
KEWAUNEE LAKESHO 2054   37      50/  2/  4  997.2S
SHEBOYGAN LAKESH 2100   40     180/ 13/ 14  997.6R
PORT WASHINGTON  2030   39     200/  5/  6  998.6R
KENOSHA   LAKESH 2100   49     200/  6/ 10  997.3
$$

TC  - TEMPERATURE IN CELSIUS
VSB - VISIBILITY IN STATUTE MILES
WCI - WIND CHILL INDEX
HX  - HEAT INDEX




USA.gov is the U.S. government's official web portal to all federal, state and local government web resources and services.